{"data":{"norad_id":63854,"intl_designator":"2025-093U","name":"STARLINK-34015","alt_names":[],"object_type":"PAYLOAD","status":"ACTIVE","operator":null,"country":"US","launch_date":"2025-05-07","launch_site_code":"AFETR","launch_vehicle":null,"mission":null,"orbit_class":"UNKNOWN","rcs_meters":null,"size_class":null,"mass_kg":null,"dimensions":null,"purposes":["comms"],"wikipedia_slug":null,"has_3d_model":false,"image_url":null,"decayed_at":null,"tle_current":{"epoch":"2026-09-20T21:41:52.885248Z","epoch_age_seconds":115005,"freshness":"FRESH","line1":"1 63854U 25093U   26263.90408432  .00009510  00000+0  35457-3 0  9995","line2":"2 63854  43.0001  55.7595 0001374 267.9114  92.1580 15.27587194 77667","mean_motion":15.27587194,"eccentricity":0.0001374,"inclination_deg":43.0001,"raan_deg":55.7595,"arg_perigee_deg":267.9114,"mean_anomaly_deg":92.158,"bstar":0.00035457,"rev_number":7766,"period_min":94.266304775006,"perigee_km":482.08483069035,"apogee_km":483.97027870998,"semimajor_km":6861.1645547002,"source":"CELESTRAK","updated_at":"2026-09-21T09:00:35.134620Z"}}}